| time (UTC) | temp F | wind direction | speed knots | gust knots | rain 1hr in | rain 24hr in | rain mn in | humidity % | barometer mb |
| 20260504231554 | 74 | 214 | 4.3 | 10.4 | 0.00 | 0.00 | 0.00 | 28 | 1003.3 |
| 20260504231038 | 74 | 234 | 1.7 | 7.8 | 0.00 | 0.00 | 0.00 | 28 | 1003.3 |
| 20260504230538 | 75 | 149 | 3.5 | 7.8 | 0.00 | 0.00 | 0.00 | 29 | 1003.2 |
| 20260504230046 | 75 | 198 | 3.5 | 7.8 | 0.00 | 0.00 | 0.00 | 28 | 1003.2 |
| 20260504225538 | 75 | 214 | 2.6 | 8.7 | 0.00 | 0.00 | 0.00 | 29 | 1003.1 |
| 20260504225037 | 75 | 213 | 2.6 | 11.3 | 0.00 | 0.00 | 0.00 | 29 | 1003.1 |
| 20260504224543 | 75 | 232 | 6.1 | 11.3 | 0.00 | 0.00 | 0.00 | 27 | 1003.1 |
| 20260504224038 | 75 | 208 | 4.3 | 8.7 | 0.00 | 0.00 | 0.00 | 29 | 1003.2 |
| 20260504223538 | 75 | 206 | 3.5 | 7.0 | 0.00 | 0.00 | 0.00 | 28 | 1003.2 |
| 20260504223043 | 75 | 223 | 3.5 | 7.8 | 0.00 | 0.00 | 0.00 | 28 | 1003.3 |
| 20260504222540 | 75 | 186 | 4.3 | 7.8 | 0.00 | 0.00 | 0.00 | 28 | 1003.2 |
| 20260504222037 | 75 | 190 | 3.5 | 8.7 | 0.00 | 0.00 | 0.00 | 29 | 1003.2 |
| 20260504221600 | 75 | 178 | 5.2 | 8.7 | 0.00 | 0.00 | 0.00 | 27 | 1003.2 |
| 20260504221037 | 75 | 167 | 5.2 | 8.7 | 0.00 | 0.00 | 0.00 | 29 | 1003.4 |
| 20260504220537 | 75 | 235 | 1.7 | 6.1 | 0.00 | 0.00 | 0.00 | 28 | 1003.3 |
| 20260504220053 | 74 | 233 | 1.7 | 8.7 | 0.00 | 0.00 | 0.00 | 29 | 1003.3 |
| 20260504215537 | 74 | 179 | 3.5 | 9.6 | 0.00 | 0.00 | 0.00 | 30 | 1003.4 |
| 20260504215038 | 75 | 224 | 4.3 | 10.4 | 0.00 | 0.00 | 0.00 | 28 | 1003.4 |
| 20260504214554 | 75 | 215 | 4.3 | 10.4 | 0.00 | 0.00 | 0.00 | 29 | 1003.5 |
| 20260504214036 | 75 | 221 | 3.5 | 8.7 | 0.00 | 0.00 | 0.00 | 30 | 1003.5 |
| 20260504213536 | 75 | 233 | 4.3 | 8.7 | 0.00 | 0.00 | 0.00 | 28 | 1003.5 |
| 20260504213051 | 75 | 201 | 3.5 | 8.7 | 0.00 | 0.00 | 0.00 | 30 | 1003.3 |
| 20260504212632 | 75 | 218 | 2.6 | 8.7 | 0.00 | 0.00 | 0.00 | 30 | 1003.4 |
| 20260504212039 | 74 | 217 | 4.3 | 8.7 | 0.00 | 0.00 | 0.00 | 29 | 1003.3 |
| 20260504211543 | 74 | 259 | 3.5 | 8.7 | 0.00 | 0.00 | 0.00 | 30 | 1003.4 |
| 20260504211035 | 74 | 231 | 4.3 | 8.7 | 0.00 | 0.00 | 0.00 | 30 | 1003.4 |
| 20260504210536 | 75 | 217 | 4.3 | 8.7 | 0.00 | 0.00 | 0.00 | 29 | 1003.4 |
| 20260504210054 | 75 | 180 | 3.5 | 7.0 | 0.00 | 0.00 | 0.00 | 30 | 1003.5 |
| 20260504205536 | 74 | 222 | 4.3 | 7.0 | 0.00 | 0.00 | 0.00 | 30 | 1003.5 |
| 20260504205035 | 74 | 200 | 2.6 | 7.8 | 0.00 | 0.00 | 0.00 | 31 | 1003.6 |
| 20260504204624 | 74 | 231 | 4.3 | 8.7 | 0.00 | 0.00 | 0.00 | 31 | 1003.7 |
| 20260504204035 | 74 | 240 | 4.3 | 8.7 | 0.00 | 0.00 | 0.00 | 32 | 1003.8 |
| 20260504203539 | 74 | 240 | 2.6 | 7.0 | 0.00 | 0.00 | 0.00 | 32 | 1003.8 |
| 20260504203050 | 74 | 236 | 4.3 | 9.6 | 0.00 | 0.00 | 0.00 | 29 | 1003.9 |
| 20260504202535 | 74 | 237 | 4.3 | 9.6 | 0.00 | 0.00 | 0.00 | 31 | 1004.0 |
| 20260504202038 | 74 | 236 | 3.5 | 8.7 | 0.00 | 0.00 | 0.00 | 31 | 1004.0 |
| 20260504201543 | 73 | 212 | 4.3 | 10.4 | 0.00 | 0.00 | 0.00 | 34 | 1004.0 |
| 20260504201036 | 73 | 229 | 4.3 | 10.4 | 0.00 | 0.00 | 0.00 | 29 | 1004.0 |
| 20260504200536 | 73 | 253 | 3.5 | 8.7 | 0.00 | 0.00 | 0.00 | 34 | 1004.3 |
| 20260504200056 | 72 | 165 | 3.5 | 8.7 | 0.00 | 0.00 | 0.00 | 35 | 1004.4 |
| 20260504195536 | 73 | 270 | 3.5 | 8.7 | 0.00 | 0.00 | 0.00 | 35 | 1004.4 |
| 20260504195039 | 73 | 224 | 3.5 | 13.0 | 0.00 | 0.00 | 0.00 | 33 | 1004.6 |
| 20260504194554 | 72 | 227 | 4.3 | 13.0 | 0.00 | 0.00 | 0.00 | 34 | 1004.7 |
| 20260504194035 | 72 | 264 | 6.1 | 13.9 | 0.00 | 0.00 | 0.00 | 34 | 1004.7 |
| 20260504193536 | 72 | 238 | 5.2 | 13.9 | 0.00 | 0.00 | 0.00 | 34 | 1004.7 |
| 20260504193050 | 73 | 238 | 6.1 | 13.9 | 0.00 | 0.00 | 0.00 | 32 | 1004.9 |
| 20260504192535 | 73 | 212 | 7.0 | 13.9 | 0.00 | 0.00 | 0.00 | 33 | 1005.0 |
| 20260504192035 | 73 | 217 | 6.1 | 13.9 | 0.00 | 0.00 | 0.00 | 33 | 1005.1 |
| 20260504191549 | 73 | 261 | 4.3 | 14.8 | 0.00 | 0.00 | 0.00 | 35 | 1005.2 |
| 20260504191035 | 72 | 209 | 7.0 | 14.8 | 0.00 | 0.00 | 0.00 | 33 | 1005.2 |
| 20260504190536 | 72 | 221 | 7.0 | 14.8 | 0.00 | 0.00 | 0.00 | 33 | 1005.1 |
| 20260504190055 | 72 | 224 | 6.1 | 13.9 | 0.00 | 0.00 | 0.00 | 36 | 1005.2 |
| 20260504185535 | 72 | 203 | 7.8 | 14.8 | 0.00 | 0.00 | 0.00 | 33 | 1005.2 |
| 20260504185035 | 72 | 248 | 6.1 | 14.8 | 0.00 | 0.00 | 0.00 | 34 | 1005.3 |
| 20260504184558 | 72 | 191 | 7.8 | 14.8 | 0.00 | 0.00 | 0.00 | 37 | 1005.3 |
| 20260504184036 | 72 | 229 | 7.0 | 12.2 | 0.00 | 0.00 | 0.00 | 35 | 1005.3 |
| 20260504183536 | 72 | 226 | 6.1 | 13.9 | 0.00 | 0.00 | 0.00 | 36 | 1005.3 |
| 20260504183046 | 71 | 269 | 7.0 | 13.9 | 0.00 | 0.00 | 0.00 | 36 | 1005.4 |
| 20260504182539 | 71 | 211 | 6.1 | 10.4 | 0.00 | 0.00 | 0.00 | 38 | 1005.5 |
| 20260504182038 | 70 | 228 | 5.2 | 11.3 | 0.00 | 0.00 | 0.00 | 43 | 1005.5 |
| 20260504181551 | 70 | 266 | 5.2 | 15.6 | 0.00 | 0.00 | 0.00 | 41 | 1005.3 |
| 20260504181037 | 70 | 244 | 6.1 | 15.6 | 0.00 | 0.00 | 0.00 | 40 | 1005.4 |
| 20260504180537 | 70 | 243 | 6.1 | 15.6 | 0.00 | 0.00 | 0.00 | 39 | 1005.5 |
| 20260504180050 | 70 | 256 | 7.8 | 15.6 | 0.00 | 0.00 | 0.00 | 38 | 1005.6 |
| 20260504175538 | 70 | 269 | 6.1 | 12.2 | 0.00 | 0.00 | 0.00 | 39 | 1005.6 |
| 20260504175037 | 70 | 240 | 5.2 | 12.2 | 0.00 | 0.00 | 0.00 | 40 | 1005.6 |
| 20260504174552 | 69 | 215 | 7.0 | 13.0 | 0.00 | 0.00 | 0.00 | 40 | 1005.5 |
| 20260504174038 | 69 | 209 | 7.8 | 13.0 | 0.00 | 0.00 | 0.00 | 39 | 1005.7 |
| 20260504173538 | 68 | 218 | 5.2 | 10.4 | 0.00 | 0.00 | 0.00 | 42 | 1005.6 |
| 20260504173050 | 68 | 249 | 5.2 | 9.6 | 0.00 | 0.00 | 0.00 | 43 | 1005.8 |
| 20260504172537 | 68 | 252 | 4.3 | 8.7 | 0.00 | 0.00 | 0.00 | 44 | 1005.8 |
| 20260504172038 | 68 | 120 | 4.3 | 9.6 | 0.00 | 0.00 | 0.00 | 43 | 1005.8 |
| 20260504171552 | 68 | 211 | 3.5 | 13.0 | 0.00 | 0.00 | 0.00 | 45 | 1005.9 |
| 20260504171037 | 68 | 219 | 6.1 | 14.8 | 0.00 | 0.00 | 0.00 | 44 | 1005.9 |
| 20260504170538 | 68 | 239 | 7.0 | 14.8 | 0.00 | 0.00 | 0.00 | 44 | 1006.0 |
| 20260504151036 | 63 | 180 | 6.1 | 13.9 | 0.00 | 0.00 | 0.00 | 45 | 1006.6 |
| 20260504150537 | 63 | 232 | 5.2 | 13.0 | 0.00 | 0.00 | 0.00 | 45 | 1006.6 |
| 20260504141036 | 60 | 145 | 6.1 | 12.2 | 0.00 | 0.00 | 0.00 | 46 | 1007.2 |
| 20260504140537 | 60 | 165 | 5.2 | 11.3 | 0.00 | 0.00 | 0.00 | 48 | 1007.1 |
| 20260504130537 | 55 | 167 | 3.5 | 14.8 | 0.00 | 0.00 | 0.00 | 52 | 1008.1 |
| 20260504110537 | 50 | 175 | 3.5 | 9.6 | 0.00 | 0.00 | 0.00 | 57 | 1007.9 |
| 20260504100537 | 50 | 202 | 2.6 | 9.6 | 0.00 | 0.00 | 0.00 | 55 | 1007.9 |
| 20260504081542 | 50 | 219 | 2.6 | 8.7 | 0.00 | 0.00 | 0.00 | 54 | 1008.3 |
| 20260504081037 | 50 | 151 | 2.6 | 9.6 | 0.00 | 0.00 | 0.00 | 54 | 1008.3 |
| 20260504080537 | 50 | 157 | 3.5 | 9.6 | 0.00 | 0.00 | 0.00 | 54 | 1008.3 |
| 20260504050536 | 50 | 167 | 0.0 | 4.3 | 0.00 | 0.00 | 0.00 | 53 | 1009.0 |
| 20260504045536 | 50 | 174 | 0.9 | 4.3 | 0.00 | 0.00 | 0.00 | 53 | 1009.0 |
| 20260504045035 | 50 | 160 | 0.9 | 2.6 | 0.00 | 0.00 | 0.00 | 54 | 1009.0 |
| 20260504044557 | 51 | 0 | 0.9 | 1.7 | 0.00 | 0.00 | 0.00 | 51 | 1009.1 |
| 20260504044037 | 51 | 167 | 0.0 | 4.3 | 0.00 | 0.00 | 0.00 | 51 | 1009.2 |
| 20260504043554 | 51 | 0 | 0.0 | 4.3 | 0.00 | 0.00 | 0.00 | 51 | 1009.1 |
| 20260504043043 | 52 | 157 | 0.9 | 4.3 | 0.00 | 0.00 | 0.00 | 49 | 1009.2 |
| 20260504042537 | 52 | 145 | 0.9 | 6.1 | 0.00 | 0.00 | 0.00 | 50 | 1009.2 |
| 20260504042038 | 52 | 153 | 0.9 | 6.1 | 0.00 | 0.00 | 0.00 | 49 | 1009.2 |
| 20260504041541 | 52 | 169 | 1.7 | 3.5 | 0.00 | 0.00 | 0.00 | 49 | 1009.1 |
| 20260504041036 | 52 | 0 | 0.9 | 4.3 | 0.00 | 0.00 | 0.00 | 49 | 1009.2 |
| 20260504040537 | 52 | 169 | 0.0 | 4.3 | 0.00 | 0.00 | 0.00 | 50 | 1009.2 |
| 20260504040045 | 51 | 139 | 0.9 | 4.3 | 0.00 | 0.00 | 0.00 | 50 | 1009.2 |
| 20260504035540 | 51 | 176 | 0.9 | 4.3 | 0.00 | 0.00 | 0.00 | 51 | 1009.3 |
| 20260504035036 | 51 | 143 | 0.0 | 2.6 | 0.00 | 0.00 | 0.00 | 52 | 1009.2 |
| 20260504034600 | 51 | 274 | 0.0 | 1.7 | 0.00 | 0.00 | 0.00 | 53 | 1009.3 |
| 20260504034036 | 51 | 0 | 0.0 | 1.7 | 0.00 | 0.00 | 0.00 | 52 | 1009.2 |
| 20260504033536 | 52 | 179 | 0.0 | 1.7 | 0.00 | 0.00 | 0.00 | 52 | 1009.2 |
| 20260504033044 | 52 | 0 | 0.0 | 2.6 | 0.00 | 0.00 | 0.00 | 52 | 1009.2 |
| 20260504032536 | 52 | 0 | 0.0 | 2.6 | 0.00 | 0.00 | 0.00 | 49 | 1009.3 |
| 20260504032037 | 52 | 153 | 0.0 | 3.5 | 0.00 | 0.00 | 0.00 | 50 | 1009.4 |
| 20260504031542 | 52 | 148 | 0.9 | 3.5 | 0.00 | 0.00 | 0.00 | 51 | 1009.5 |
| 20260504031035 | 52 | 120 | 0.0 | 0.9 | 0.00 | 0.00 | 0.00 | 50 | 1009.6 |
| 20260504030535 | 52 | 155 | 0.0 | 1.7 | 0.00 | 0.00 | 0.00 | 50 | 1009.6 |
| 20260504030044 | 52 | 0 | 0.0 | 2.6 | 0.00 | 0.00 | 0.00 | 48 | 1009.5 |
| 20260504025535 | 53 | 179 | 0.9 | 2.6 | 0.00 | 0.00 | 0.00 | 46 | 1009.5 |
| 20260504025036 | 53 | 155 | 0.0 | 1.7 | 0.00 | 0.00 | 0.00 | 46 | 1009.6 |
| 20260504024545 | 53 | 177 | 0.0 | 1.7 | 0.00 | 0.00 | 0.00 | 45 | 1009.7 |
| 20260504024037 | 53 | 149 | 0.9 | 1.7 | 0.00 | 0.00 | 0.00 | 44 | 1009.7 |
| 20260504023536 | 53 | 198 | 0.0 | 1.7 | 0.00 | 0.00 | 0.00 | 45 | 1009.6 |
| 20260504023040 | 54 | 195 | 0.9 | 1.7 | 0.00 | 0.00 | 0.00 | 43 | 1009.7 |
| 20260504022536 | 54 | 0 | 0.0 | 1.7 | 0.00 | 0.00 | 0.00 | 43 | 1009.7 |
| 20260504022037 | 54 | 0 | 0.0 | 2.6 | 0.00 | 0.00 | 0.00 | 44 | 1009.8 |
| 20260504021543 | 54 | 247 | 0.9 | 2.6 | 0.00 | 0.00 | 0.00 | 42 | 1009.8 |
| 20260504021037 | 54 | 0 | 0.0 | 1.7 | 0.00 | 0.00 | 0.00 | 43 | 1009.8 |
| 20260504020535 | 54 | 300 | 0.0 | 2.6 | 0.00 | 0.00 | 0.00 | 43 | 1009.8 |
| 20260504020042 | 55 | 266 | 0.9 | 2.6 | 0.00 | 0.00 | 0.00 | 41 | 1009.9 |
| 20260504015536 | 55 | 236 | 0.9 | 4.3 | 0.00 | 0.00 | 0.00 | 41 | 1009.9 |
| 20260504015036 | 55 | 281 | 0.9 | 4.3 | 0.00 | 0.00 | 0.00 | 41 | 1010.0 |
| 20260504014553 | 55 | 252 | 0.9 | 4.3 | 0.00 | 0.00 | 0.00 | 41 | 1010.0 |
| 20260504014036 | 55 | 205 | 0.9 | 4.3 | 0.00 | 0.00 | 0.00 | 41 | 1010.0 |
| 20260504013536 | 55 | 274 | 1.7 | 4.3 | 0.00 | 0.00 | 0.00 | 42 | 1010.1 |
| 20260504013047 | 55 | 286 | 1.7 | 4.3 | 0.00 | 0.00 | 0.00 | 41 | 1010.0 |
| 20260504012537 | 55 | 252 | 1.7 | 9.6 | 0.00 | 0.00 | 0.00 | 41 | 1010.0 |
| 20260504012036 | 55 | 233 | 1.7 | 9.6 | 0.00 | 0.00 | 0.00 | 40 | 1010.0 |
| 20260504011545 | 55 | 186 | 2.6 | 9.6 | 0.00 | 0.00 | 0.00 | 41 | 1009.9 |
| 20260504011035 | 55 | 205 | 0.9 | 5.2 | 0.00 | 0.00 | 0.00 | 41 | 1009.9 |
| 20260504010537 | 55 | 264 | 2.6 | 6.1 | 0.00 | 0.00 | 0.00 | 40 | 1009.9 |
| 20260504010045 | 55 | 211 | 1.7 | 7.0 | 0.00 | 0.00 | 0.00 | 40 | 1009.8 |
| 20260504005536 | 55 | 261 | 1.7 | 7.0 | 0.00 | 0.00 | 0.00 | 41 | 1009.8 |
| 20260504005036 | 55 | 198 | 2.6 | 11.3 | 0.00 | 0.00 | 0.00 | 40 | 1009.8 |
| 20260504004543 | 55 | 243 | 6.1 | 11.3 | 0.00 | 0.00 | 0.00 | 40 | 1009.8 |
| 20260504004036 | 55 | 293 | 6.1 | 14.8 | 0.00 | 0.00 | 0.00 | 38 | 1009.9 |
| 20260504003536 | 56 | 167 | 5.2 | 14.8 | 0.00 | 0.00 | 0.00 | 38 | 1009.8 |
| 20260504003052 | 55 | 243 | 4.3 | 8.7 | 0.00 | 0.00 | 0.00 | 39 | 1009.8 |
| 20260504002536 | 55 | 277 | 3.5 | 8.7 | 0.00 | 0.00 | 0.00 | 40 | 1009.7 |
| 20260504002035 | 55 | 261 | 1.7 | 8.7 | 0.00 | 0.00 | 0.00 | 41 | 1009.6 |
| 20260504001542 | 55 | 244 | 2.6 | 8.7 | 0.00 | 0.00 | 0.00 | 40 | 1009.5 |
| 20260504001037 | 55 | 286 | 2.6 | 6.1 | 0.00 | 0.00 | 0.00 | 40 | 1009.2 |
| 20260504000536 | 55 | 297 | 2.6 | 6.1 | 0.00 | 0.00 | 0.00 | 41 | 1009.1 |
| 20260504000046 | 55 | 261 | 3.5 | 6.1 | 0.00 | 0.00 | 0.00 | 40 | 1009.1 |
| 20260503235538 | 55 | 250 | 0.0 | 3.5 | 0.00 | 0.00 | 0.00 | 39 | 1009.1 |
| 20260503235036 | 55 | 271 | 0.9 | 4.3 | 0.00 | 0.00 | 0.00 | 38 | 1008.9 |
| 20260503234548 | 55 | 164 | 0.0 | 4.3 | 0.00 | 0.00 | 0.00 | 39 | 1008.9 |
| 20260503234036 | 55 | 184 | 1.7 | 4.3 | 0.00 | 0.00 | 0.00 | 39 | 1008.9 |
| 20260503233536 | 56 | 238 | 1.7 | 4.3 | 0.00 | 0.00 | 0.00 | 39 | 1008.8 |
| 20260503233042 | 56 | 323 | 1.7 | 7.8 | 0.00 | 0.00 | 0.00 | 39 | 1008.9 |
| 20260503232535 | 56 | 266 | 2.6 | 8.7 | 0.00 | 0.00 | 0.00 | 38 | 1008.8 |
| 20260503232035 | 56 | 197 | 4.3 | 12.2 | 0.00 | 0.00 | 0.00 | 39 | 1008.9 |